Погода в Есиле

Погода в Есиле : погода сейчас, прогноз погоды и архив. Всё, что Вы хотите узнать о погоде в Есиле!

Хотите узнать прогноз погоды в Есиле? Тогда Вам сюда: Погода в Есиле

Поиск расширенной информации на нашем сайте:

Другие новости

Новости СМИ2

Главная страница сайта

Новости сайта

03.07.2017

Напоминаем, что на нашем специализированном сайте Метеоцентр.Азия вы можете получить высокодетализированные автоматические прогнозы погоды по пунктам России, СНГ и мира в авиационном формате (включающие направление и скорость ветра, видимость, явления погоды, количество и форму облачности, нижнюю и верхнюю границу облачности).

Рекомендуем: тумба челябинск

Погода в Есиле - сегодня

Время (UTC), дата Ветер
(°,м/с) 
Видим.   Явления Облачность Т
(°С)
Тd
(°С)
f(%) Тe
(°С)
Pmin
(гПа)
dP
(гПа)
Po
(мм)
O2
(г/м3)
Тmin Tmax R s Состояние
почвы
18 14.10.17 210 (ЮЗ) н/о    8/0 средняя 
[Ac trans]
+4.8 +0.7 75 +6  1014  0.5  740  293    +14.9       
21 14.10.17 190 (Ю) н/о    4/0 средняя 
[Ac trans]
+1.8 -1.9 76 +3  1014.3  740  297           
00 15.10.17 190 (Ю) н/о    4/0 средняя 
[Ac trans]
+0.7 -1.9 83 +1  1014.8  0.4  741  298           
03 15.10.17 190 (Ю) 10 км  дымка  3/0 средняя 
[Ac trans]
-0.5 -1.7 92 -1  1015.7  0.8  741  299           
06 15.10.17 270 (З) 20000 м    3/0 средняя 
[Ac trans]
+9.4 +0.9 55 +9  1014.8  741  289  -1.6         
09 15.10.17 270 (З) 20000 м    1/0 верхняя 
[Cs]
+13.2 -0.6 39 +13  1014  -0.4  741  285           
12 15.10.17 270 (З) 20000 м    ясно 
+12.7 -0.7 40 +13  1014.4  0.3  741  285           
15 15.10.17 тихо ()   н/о  дым  ясно 
+4.8 -0.2 70 +5  1015.9  0.8  742  294    +14.7       
18 15.10.17 тихо ()   н/о    ясно 
-1.3 -3.8 83 -1  1016.8  0.2  742  301    +14.7       
21 15.10.17 070 (В) н/о    ясно 
-3 -5.3 84 -3  1016.8  -0.1  742  303           
00 16.10.17 050 (СВ) н/о    ясно 
-2.8 -4.8 86 -2  1016.4  -0.4  741  302           
03 16.10.17 050 (СВ) 20000 м    4/0 верхняя 
[Ci fib]
-2.2 -3.7 89 -2  1017.1  0.7  742  302           
06 16.10.17 130 (ЮВ) 20000 м    10/0 верхняя 
[Cc]
+12.3 -0.3 42 +13  1015.2  -0.4  742  286  -3.5         
09 16.10.17 110 (В) 20000 м    9/0 верхняя 
[Cs]
+15.9 -1.4 31 +16  1014.1  -0.8  741  282           
12 16.10.17 110 (В) 20000 м    9/0 средняя, верхняя 
[Ac As|Cs]
+14.8 -0.4 35 +15  1013.6  -0.5  741  283           
15 16.10.17 110 (В) н/о    3/0 верхняя 
[Ci fib]
+10.7 -0.1 47 +10  1014.6  0.6  741  287    +16.2       
18 16.10.17 110 (В) н/о    ясно 
+9.7 +0.7 53 +9  1014.1  -0.6  741  288    +16.2       
21 16.10.17 100 (В) н/о    9/0 средняя 
[As trans]
+8.9 +0.2 54 +8  1013.4  -0.8  740  289           
00 17.10.17 100 (В) н/о    8/0 средняя 
[Ac As]
+7.9 +0.1 58 +7  1012.5  -0.9  739  289           
03 17.10.17 090 (В) 20000 м    8/0 средняя, верхняя 
[Ac trans|Ci fib]
+6.7 -0.2 61 +5  1011.8  -0.8  739  291           
06 17.10.17 110 (В) 20000 м    8/3 600 м средняя, верхняя 
[Sc|Ac trans|Cs]
+10.9 +0.5 49 +11  1011.4  739  286  +5         
09 17.10.17 110 (В) 20000 м    5/3 600 м верхняя 
[Cu Sc|Ci fib]
+15.6 +2 40 +15  1009.1  -1.8  737  281           
12 17.10.17 110 (В) 20000 м    4/3 600 м верхняя 
[Sc|Ci fib]
+14.1 +3.6 49 +14  1008  -1.2  737  282           
15 17.10.17 070 (В) н/о    5/3 600 м средняя 
[Sc|Ac trans]
+9.5 +1.1 56 +9  1007.9  -0.6  736  286    +16       
18 17.10.17 070 (В) н/о    3/0 средняя 
[Ac trans]
+8.4 +1.7 63 +7  1005.8  -2.1  735  287    +16       
Время (UTC), дата Ветер
(°,м/с) 
Видим.   Явления Облачность Т
(°С)
Тd
(°С)
f(%) Тe
(°С)
Pmin
(гПа)
dP
(гПа)
Po
(мм)
O2
(г/м3)
Тmin Tmax R s Состояние
почвы

Для получения пояснительной информации подведите курсор к названию столбца.

ПОГОДА в Есиле - архив

Всё, что Вы хотите узнать о погоде в Есиле - удобно и подробно!

Выберите нужную дату (начиная с 1 января 2015* года) и нажмите кнопку "Найти".
Будут отображены архивные сводки погоды по пункту Есиль, начиная с указанной даты.


Отображать данные в формате CSV (для использования в таблицах Excel)


Внимание! Наш архив погоды предназначен исключительно для личного некоммерческого использования в познавательных целях. Если Вам необходимы официальные справки о состоянии погоды (для производственных, юридических, коммерческих и т.п. целей), обращайтесь в органы Росгидромета.

*Примечание: данная дата относится к архиву по метеостанциям СССР (Россия, СНГ, Балтия).
Архив по метеостанциям Зарубежной Европы и Азии (кроме Китая) хранится 10 дней, по другим регионам земного шара (Китай, Африка, Америка, Австралия, Океания) - 1 день.

Есиль - район местоположения метеостанции


Название, широта, долгота, высота метеостанции:
Есиль 51.9°ш. 66.3°д. 221 м над ур. моря [Казахстан]

Дополнительная информация

В oтличие oт бoльшинства пoгoдных сайтoв мы публикуем пoдрoбную метеoинфoрмацию в детальнoм прoфессиoнальнoм фoрмате.

Характеристики температуры и влажнoсти вoздуха измеряются на высoте 2 м в тени вдали oт зданий и деревьев.
Скoрoсть ветра измеряется на высoте 10 м (на урoвне рoста челoвека скoрoсть ветра ниже в 1.5-2 раза). Если метеoстанция нахoдится в гoрoде или в лесу, тo скoрoсть ветра занижена на 2-4 м/с пo сравнению с oткрытым местoм. Скoрoсть ветра над акватoриями крупных рек и oзёр, а также на вершинах хoлмoв на 2-5 м/с выше, чем в oбычных услoвиях.
Атмoсфернoе давление в разных тoчках местнoсти мoжет значительнo oтличаться oт давления на метеoстанции, в зависимoсти oт услoвий рельефа (при пoдъёме на 10 м давление пoнижается примернo на 1 мм рт.ст.).